Showing default

ICEYE-X4, 44390

Orbit data source: Space-Track

ICEYE-X4, 44390 is a payload satellite owned by ICEYE (FI) in SSO that was launched on Fri, 05 Jul 2019 UTC via a SOYUZ-2-1B launch vehicle from the Vostochny Cosmodrome (VOSTO). Payload-class satellites include a variety of spacecraft equipped with specific instruments for various scientific and technological missions. These include communications satellites like Starlink; space stations such as the ISS; scientific satellites like the Hubble; Earth observation satellites from companies like Planet Labs, Umbra, and HawkEye 360; GPS; miniature CubeSats for education and research; and military/defense satellites.

Loading next visibility...
Identifier
44390, 2019-038D
Orbit
SSO
Country
Flag of FIFI / FIN
Related business
Manufacturer
ICEYE
Mission
Operational Commercial Radar Imaging
Bus & Motor
ICEYE, Unknown motor
Mass
80 kg wet, 80 kg dry
Launch date (UTC)
2019-07-05 (6 years ago)
Launch vehicle
SOYUZ-2-1B
Launch site
Vostochny Cosmodrome (VOSTO)
Object type
Payload
Rocket body
Debris
Shape & HBR
Box + 1 Pan, 1.6 m
Radar Cross Section
1.837 m², Medium (>0.1 m² and < 1m²)

Expand to show TLE details & history
Last TLE update: 22 hours ago

TLE from 22 hours ago
0 ICEYE-X4
1 44390U 19038D   25261.30291983  .00009266  00000-0  41002-3 0  9995
2 44390  97.9037 274.2781 0016357 165.0345 195.1377 15.21794986340343
Epoch: 2025-09-18T07:16Z
TLE epoch observation values (Epoch: 2025-09-18T07:16:12.273Z)
Latitude
-0.00002°
Longitude
167.76051°
Altitude
514.369 km
Speed
7.601 km/s
True Right ascension
18h 17m 06s
True Declination
0° 00' 00"
Sunlit
Object was in daylight at epoch
Visualization orbit readout
Latitude
Unknown
Longitude
Unknown
Altitude
Unknown
Speed
Unknown
Apparent Right ascension
Unknown
Apparent Declination
Unknown
Sunlit
N/A
Visualization observer readout
Local Sidereal Time
21:40:43
Azimuth
Unknown
Elevation
Unknown
Doppler factor
Unknown
Orbital elements
Apogee altitude
508.658 km
Perigee altitude
486.165 km
Semi-major axis
6,875.549 km
Eccentricity
0.00164
Inclination
97.9037°
RAAN
274.2781°
Arg. of periapsis
165.0345°
True anomaly
195.08885°
Mean anomaly
195.1377°
Eccentric anomaly
195.11326°
Mean motion
3.80699 °/min
Orbital period
94.56 mins
BSTAR
0.00041002
Loading maneuver chart data...
Computing Atmospheric mass density...

Documentation

Showing up to 5 results
|